Location: Casper
(42.8670°N, 106.3130°W)
Time: 19:36:29
(UTC-06:00)

Daily predictions for brighter satellites

Satellite Brightness Start Highest point End
(mag) Time Altitude Azimuth Time Altitude Azimuth Time Altitude Azimuth
ATLAS 3B R/B 4.2 19:05:53 10° WSW 19:12:57 40° NW 19:19:50 10° NNE
SJ-6B 3.3 19:10:11 10° SE 19:13:57 42° ENE 19:17:50 10° N
Cosmos 2333 Rocket 3.5 19:12:03 10° SW 19:17:34 45° WNW 19:23:06 10° NNE
Helios 1A 4.1 19:14:51 10° ESE 19:18:17 25° ENE 19:21:44 10° NNE
Resurs 01 Rocket 2.4 19:17:00 10° SE 19:20:55 31° ENE 19:24:50 10° N
Cosmos 1758 4.1 19:22:46 10° SSE 19:26:21 30° E 19:29:59 10° NNE
Abrixas 4.2 19:25:22 10° S 19:27:33 18° SE 19:29:31 11° E
Cosmos 1484 Rocket 3.2 19:24:36 10° S 19:28:25 67° WSW 19:32:20 10° NNW
Cosmos 1437 3.8 19:25:32 10° NNW 19:28:45 51° W 19:31:54 10° S
Cosmos 1452 Rocket 3.6 19:25:19 10° NNW 19:30:31 56° ENE 19:35:39 10° SE
Cosmos 1346 4.5 19:30:15 10° NNE 19:32:31 19° ENE 19:34:43 10° ESE
NOSS 3-2 (A) 3.5 19:27:37 10° SSW 19:33:41 86° ESE 19:40:22 10° NE
TELKOM 3 4.3 19:32:57 10° NW 19:35:47 33° NNE 19:37:25 15° ENE
ATLAS 5 CENTAUR R/B 1.8 19:32:41 10° SSW 19:37:23 63° ESE 19:42:30 10° NE
Timation 1 Rocket 4.4 19:31:54 10° NNW 19:37:53 85° WSW 19:43:52 10° SSE
Cosmos 2237 Rocket 3.8 19:32:54 10° SW 19:38:09 37° WNW 19:43:24 10° N
COSMO-SKYMED 1 3.4 19:35:04 10° N 19:39:20 57° WNW 19:43:35 10° SSW
Nadezhda 4 Rocket 4.3 19:37:58 10° N 19:43:55 43° ENE 19:49:46 10° SSE
Cosmos 1072 Rocket 4.5 19:41:34 10° S 19:47:40 90° E 19:53:48 10° N
Cosmos 1766 3.8 19:45:07 10° SSW 19:49:02 63° W 19:53:01 10° N
Meteor 1-21 Rocket 4.3 19:44:00 10° N 19:49:28 56° ENE 19:54:53 10° SSE
ASTEX 1 4.2 19:46:25 10° NNE 19:50:41 29° E 19:54:56 10° SSE
Cosmos 1420 Rocket 4.3 19:46:25 10° N 19:51:35 48° ENE 19:56:41 10° SE
Helios 1B rocket 2.5 19:50:01 10° NNE 19:54:03 52° E 19:58:03 10° S
Cosmos 1544 3.5 19:50:43 10° SSE 19:54:14 40° E 19:57:46 10° NNE
Cosmos 1766 Rocket 3.6 19:54:03 10° N 19:58:26 85° W 20:02:46 10° S
SL-16 R/B 3.0 19:53:22 10° SW 19:58:56 55° WNW 20:04:33 10° NNE
CZ-2D R/B 4.0 20:00:07 21° ESE 20:02:02 32° ENE 20:05:33 10° N
METEOR-M 4.2 19:57:08 10° SSE 20:02:30 88° WSW 20:07:53 10° NNW
Cosmos 1076 Rocket 4.1 19:59:26 10° NNW 20:03:42 61° W 20:07:59 10° S
CENTAUR R/B 3.1 19:59:56 10° S 20:05:10 32° ESE 20:10:59 10° NE
OAO 3 Rocket 4.3 20:01:04 10° WSW 20:05:16 32° S 20:07:53 19° SE
Spot 1 4.4 20:01:25 10° S 20:06:09 77° WSW 20:10:36 10° NNW
Spot 2 Rocket 3.5 20:03:23 10° SSE 20:08:26 86° WSW 20:13:30 10° NNW
Cosmos 1048 Rocket 4.1 20:06:25 10° S 20:11:32 51° ESE 20:16:36 10° NNE
Meteor 1-28 Rocket 4.3 20:08:05 10° N 20:11:40 46° WNW 20:15:13 10° SSW
Cosmos-2242 3.0 20:07:35 10° S 20:11:57 90° WNW 20:16:23 10° N
Cosmos 1269 Rocket 4.0 20:07:02 10° S 20:12:13 61° ESE 20:17:26 10° NNE
NOSS 3-2 (C) 3.9 20:06:42 10° SW 20:12:48 68° NW 20:19:30 10° NNE
H-2A R/B 3.0 20:14:25 29° SE 20:16:01 46° ENE 20:19:45 10° N
FENGYUN 3A 3.6 20:11:04 10° SSE 20:16:21 64° ENE 20:21:42 10° N
ISS -2.7 20:14:00 10° SSW 20:16:49 36° SSE 20:16:49 36° SSE
Cosmos 1805 3.7 20:13:48 10° SSW 20:17:42 65° W 20:21:38 10° N
Cosmos 1953 2.8 20:15:33 10° SSW 20:19:29 61° W 20:23:26 10° N
Cosmos 2151 3.9 20:15:48 10° NNE 20:19:18 29° ENE 20:19:18 29° ENE
Envisat 4.3 20:19:33 21° ENE 20:19:35 21° ENE 20:23:18 10° NNE
HJ-1C 4.5 20:19:07 10° S 20:22:21 46° W 20:25:38 10° NNW
Cosmos 2034 Rocket 4.3 20:16:20 10° SSW 20:22:34 73° W 20:28:56 10° N
Gbstr 26 Del rocket 3.8 20:20:32 10° SSW 20:24:41 37° SE 20:25:35 34° ESE
ALOS 2.1 20:20:49 11° SSE 20:25:21 79° ENE 20:30:03 10° N
CZ-4C R/B 4.5 20:23:42 10° W 20:28:04 22° NNW 20:32:52 10° NNE
Cosmos 1500 Rocket 3.4 20:27:07 10° N 20:31:34 76° E 20:34:12 24° SSE
Cosmos 1842 Rocket 3.4 20:27:42 10° S 20:32:00 71° E 20:36:21 10° NNE
GPS 2-04 Rocket1 4.2 20:30:41 10° SW 20:32:46 20° S 20:32:46 20° S
ATLAS CENTAUR R/B 4.3 20:29:15 10° WSW 20:35:05 71° NNW 20:54:55 10° NE
Cosmos 158 Rocket 3.9 20:31:32 10° S 20:36:13 49° ESE 20:40:55 10° NNE
Cosmos 1943 Rocket 3.1 20:34:19 10° N 20:39:15 30° NE 20:39:39 30° ENE
Cosmos 2369 Rocket 2.2 20:34:00 10° NNW 20:39:38 64° ENE 20:41:34 40° SE
Cosmos 1943 3.2 20:35:37 10° S 20:41:06 57° ESE 20:46:37 10° NNE
Cosmos 1470 2.6 20:37:20 10° S 20:41:14 90° NW 20:45:08 10° N
USA 215 3.2 20:37:25 10° NE 20:44:00 87° NW 20:50:32 10° SW
Cosmos 1733 3.0 20:43:41 67° SSE 20:44:08 80° E 20:48:01 10° N
Cosmos 1603 4.3 20:40:46 10° SW 20:46:25 60° WNW 20:52:08 10° NNE
Cosmos 2263 4.4 20:41:11 10° NNW 20:46:52 54° ENE 20:47:58 47° E
CZ-4B DEB 3.8 20:47:42 37° SW 20:48:30 46° W 20:51:41 10° NNW
SL-8 R/B 3.5 20:44:43 10° WSW 20:49:30 83° SSE 20:50:17 62° ENE
SeaSat 1 3.7 20:47:46 10° NE 20:55:12 26° S 20:57:26 10° S
Cosmos 1627 Rocket 4.4 20:47:24 10° N 20:53:36 68° E 20:55:58 39° SSE
Cosmos 1674 3.5 20:51:03 10° NNW 20:54:49 50° W 20:56:23 30° SSW
ERS-1 Rocket 3.3 20:55:22 45° NE 20:55:22 45° NE 20:59:45 10° N
Resurs 01 Rocket 3.7 20:53:39 10° SSW 20:57:22 26° W 21:01:07 10° NW
Cosmos 1110 Rocket 4.0 20:57:19 10° NNW 21:02:36 63° ENE 21:02:36 63° ENE
BREEZE-M DEB (TANK) 4.5 21:02:25 10° W 21:13:17 54° NNW 21:14:54 38° NE
Meteor 1-16 Rocket 3.9 21:18:51 87° W 21:18:52 87° W 21:24:13 10° N
Meteor 1-11 4.2 21:16:06 10° N 21:21:56 85° W 21:22:26 75° S
ATLAS 5 CENTAUR R/B 4.1 21:18:32 10° W 21:22:33 24° NW 21:26:50 10° NNE
GP-B 3.9 21:18:30 10° N 21:22:48 49° W 21:23:17 47° WSW
Cosmos 2279 Rocket 3.8 21:30:58 87° ENE 21:30:58 87° ENE 21:37:11 10° N
Cosmos 1331 Rocket 4.4 21:30:21 10° NNW 21:34:49 62° NW 21:34:49 62° NW
Cosmos 1655 Rocket 4.2 21:33:55 10° NNW 21:40:06 67° W 21:40:56 60° SW
H-2A R/B 4.3 21:43:12 19° N 21:43:12 19° N 21:44:33 10° N
SL-24 R/B - RUBIN 2 4.5 21:35:52 10° NW 21:42:14 79° WNW 21:42:14 79° WNW
CENTAUR R/B 3.2 21:49:30 10° WSW 21:55:30 51° NW 22:02:17 10° NNE
Envisat 4.3 21:59:46 38° NW 21:59:46 38° NW 22:03:11 10° NNW
H-2A R/B 4.5 22:12:41 13° N 22:12:41 13° N 22:13:19 10° N
Cosmos 2369 Rocket 4.3 22:19:15 10° WNW 22:23:05 19° W 22:23:24 19° WSW
Cosmos 1943 Rocket 3.7 22:17:50 10° NW 22:21:11 32° WNW 22:21:11 32° WNW
USA 215 4.5 22:24:24 29° NNE 22:26:32 36° NNW 22:32:21 10° W
